www.pogodaiklimat.ru

Погода и климат >> Архив погоды >> Япония >> Токио


АРХИВ ПОГОДЫ в Токио

Время (UTC), дата Ветер
(напр.,м/с)
 
Видим.   Явления Облачность Т
(С)
Тd
(С)
f
(%)
Тe
(С)
Тes
(С)
Комфортность P
(гПа)
Po
(гПа)
Тmin
(С)
Tmax
(С)
R
(мм)
R24
(мм)
S
(см)
19 9.09 СЗ 2 н/о н/о +26.8 +25.0 90 +39 +39 очень
душно
1012.2 1009.4
21 9.09 СЗ 2 20 км 4/1
[Cu hum Ac trans Ci sp]
+26.6 +24.1 86 +37 +37 очень
душно
1013.1 1010.3
23 9.09 С 2 н/о н/о +29.5 +23.2 69 +40 +40 очень
душно
1013.8 1011.1
00 10.09 С 2 25 км 5/0
[Ci sp]
+30.8 +23.7 66 +42 +51 опасность
перегрева
1013.6 1010.9 +26.2
01 10.09 З 2 н/о н/о +31.8 +23.6 62 +43 +43 опасность
перегрева
1013.2 1010.5
02 10.09 С 2 н/о н/о +33.7 +25.1 61 +48 +48 опасность
перегрева
1012.8 1010.1
03 10.09 СЗ 3 25 км 4/1
[Cu med, cong Ac trans Ci sp]
+34.5 +23.8 54 +46 +57 опасность
перегрева
1012.3 1009.6
04 10.09 ЮВ 4 н/о н/о +34.5 +25.0 58 +48 +48 опасность
перегрева
1011.5 1008.8
05 10.09 Ю 4 н/о н/о +34.1 +25.5 61 +49 +49 опасность
перегрева
1011.1 1008.4
06 10.09 Ю 3 20 км 8/1
[Cu med, cong Ci sp]
+32.8 +24.8 63 +46 +50 опасность
перегрева
1011.0 1008.3
07 10.09 Ю 3 н/о н/о +33.1 +25.1 63 +47 +47 опасность
перегрева
1011.1 1008.4
08 10.09 ЮВ 5 н/о н/о +32.6 +24.4 62 +45 +45 опасность
перегрева
1011.3 1008.6
09 10.09 Ю 4 15 км 8/3
[Cb calv Ac trans Ci sp]
+30.9 +24.3 68 +43 +43 опасность
перегрева
1012.1 1009.4
10 10.09 Ю 2 н/о н/о +30.3 +24.5 71 +43 +43 опасность
перегрева
1012.9 1010.2
11 10.09 ЮЗ 2 н/о н/о +29.8 +24.9 75 +43 +43 опасность
перегрева
1013.9 1011.2
12 10.09 З 2 15 км зарница 9/9
[Cb cap]
+29.5 +24.8 76 +42 +42 опасность
перегрева
1014.5 1011.8 +35.6
13 10.09 СВ 4 н/о н/о +27.4 +24.5 84 +39 +39 очень
душно
1015.3 1012.5
15 10.09 СВ 3 н/о н/о +25.9 +25.0 95 +37 +37 очень
душно
1015.1 1012.3
16 10.09 С 2 н/о н/о +25.1 +24.4 96 +35 +35 очень
душно
1014.9 1012.1
17 10.09 С 2 н/о н/о +25.3 +24.3 94 +35 +35 очень
душно
1014.5 1011.7
18 10.09 С 2 20 км {гроза, ливн. осадки} 3/1
[Cu hum Ac trans]
+24.9 +23.5 92 +34 +34 очень
душно
1014.5 1011.7 0.5
19 10.09 С 2 н/о н/о +24.4 +23.7 96 +33 +33 очень
душно
1014.3 1011.5
20 10.09 СЗ 2 н/о н/о +24.5 +23.7 95 +33 +33 очень
душно
1014.3 1011.5
21 10.09 С 2 15 км 3/3
[Cu Sc]
+25.3 +23.7 91 +34 +35 очень
душно
1014.4 1011.6
22 10.09 С 1 н/о н/о +26.1 +23.6 86 +35 +35 очень
душно
1014.3 1011.5
23 10.09 З 1 н/о н/о +27.1 +24.2 84 +38 +38 очень
душно
1014.4 1011.6
00 11.09 З 1 15 км 9/9
[Cu Sc]
+28.4 +24.6 80 +40 +41 очень
душно
1014.1 1011.4 +24.3 0.5
01 11.09 ЮВ 1 н/о н/о +29.8 +24.7 74 +42 +42 опасность
перегрева
1013.2 1010.5
02 11.09 ЮВ 2 н/о н/о +30.3 +25.2 74 +44 +44 опасность
перегрева
1012.1 1009.4
03 11.09 Ю 3 10 км 9/9
[Cu med, cong]
+30.5 +26.2 78 +46 +48 опасность
перегрева
1011.5 1008.8
04 11.09 Ю 3 н/о н/о +31.9 +25.7 70 +47 +47 опасность
перегрева
1010.1 1007.4
05 11.09 ЮВ 4 н/о н/о +31.3 +26.6 76 +48 +48 опасность
перегрева
1009.0 1006.3
06 11.09 ЮВ 6 15 км 8/5
[Cu med, cong Ac As]
+30.7 +26.0 76 +46 +47 опасность
перегрева
1008.4 1005.7
07 11.09 Ю 4 н/о н/о +30.3 +25.8 77 +45 +45 опасность
перегрева
1008.5 1005.8
08 11.09 ЮВ 3 н/о н/о +29.2 +26.2 84 +44 +44 опасность
перегрева
1009.2 1006.5
09 11.09 ЮЗ 2 6000 м гроза, ливневой дождь 9/9
[Cb cap Ac cuf]
+27.2 +27.2 100 +43 +43 опасность
перегрева
1009.0 1006.3
10 11.09 СЗ 3 н/о н/о +26.3 +26.3 100 +40 +40 очень
душно
1010.0 1007.2
11 11.09 СЗ 3 н/о н/о +26.0 +26.0 100 +39 +39 очень
душно
1010.0 1007.2
12 11.09 СЗ 2 15 км в посл. час ливневой дождь {гроза} 9/9
[Cu med, cong]
+25.5 +25.5 100 +37 +37 очень
душно
1010.1 1007.3 +32.3 8
13 11.09 СЗ 2 н/о н/о +25.7 +25.7 100 +38 +38 очень
душно
1009.9 1007.1
14 11.09 СЗ 4 н/о н/о +26.0 +25.8 99 +38 +38 очень
душно
1010.0 1007.2
15 11.09 С 2 н/о н/о +24.9 +24.7 99 +35 +35 очень
душно
1009.8 1007.0
16 11.09 С 3 н/о н/о +24.7 +24.4 98 +34 +34 очень
душно
1009.5 1006.7
17 11.09 СЗ 3 н/о н/о +24.4 +22.7 90 +32 +32 очень
душно
1009.0 1006.2
18 11.09 С 3 20 км {гроза, ливн. осадки} 1/1
[Sc Ac As]
+24.3 +22.6 90 +32 +32 очень
душно
1009.1 1006.3 0.0
19 11.09 С 3 н/о н/о +24.5 +21.4 83 +31 +31 очень
душно
1009.5 1006.7
20 11.09 С 4 н/о н/о +24.4 +21.3 83 +31 +31 очень
душно
1010.5 1007.7
21 11.09 СВ 3 25 км 5/5
[Cu Sc]
+24.9 +20.6 77 +31 +31 очень
душно
1011.5 1008.7
23 11.09 СВ 3 н/о н/о +26.4 +21.0 72 +33 +33 очень
душно
1013.0 1010.2
00 12.09 В 3 25 км 8/6
[Cu med, cong Ac trans]
+26.9 +20.7 69 +34 +36 очень
душно
1013.3 1010.5 +23.9 0.0
01 12.09 В 4 н/о н/о +27.5 +19.3 61 +33 +33 очень
душно
1013.3 1010.5
02 12.09 В 4 н/о н/о +27.2 +19.6 63 +33 +33 очень
душно
1013.2 1010.4
03 12.09 СВ 2 25 км 9/9
[Cu med, cong]
+27.4 +18.7 59 +32 +34 очень
душно
1013.2 1010.4
04 12.09 ЮВ 3 н/о н/о +26.7 +18.8 62 +32 +32 очень
душно
1012.6 1009.8
05 12.09 ЮВ 4 н/о н/о +27.5 +18.0 56 +32 +32 очень
душно
1012.5 1009.8
06 12.09 ЮВ 4 25 км 9/9
[Cu Sc]
+26.2 +18.6 63 +31 +32 очень
душно
1012.6 1009.8
07 12.09 ЮВ 6 н/о н/о +25.5 +18.2 64 +30 +30 душно 1013.1 1010.3
08 12.09 ЮВ 4 н/о н/о +24.8 +17.3 63 +29 +29 душно 1013.7 1010.9
09 12.09 ЮВ 5 20 км 8/3
[Cu Sc Ac trans Ci sp]
+24.3 +16.1 60 +28 +28 душно 1014.4 1011.6
10 12.09 Ю 4 н/о н/о +24.2 +14.3 54 +27 +27 жарко 1015.1 1012.3
11 12.09 В 2 н/о н/о +23.2 +15.5 62 +27 +27 душно 1015.9 1013.1
12 12.09 ЮВ 2 20 км 9/1
[Cu Sc Ac As Ci sp]
+22.9 +16.2 66 +27 +27 душно 1015.9 1013.1 +28.7
13 12.09 СВ 2 н/о н/о +23.3 +16.1 64 +28 +28 душно 1016.0 1013.2
15 12.09 В 2 н/о н/о +22.8 +17.3 71 +28 +28 душно 1015.8 1013.0
16 12.09 В 3 н/о н/о +23.1 +15.4 62 +27 +27 душно 1015.8 1013.0
18 12.09 СВ 2 20 км 9/9
[Cu Sc]
+22.5 +16.5 69 +27 +27 душно 1015.5 1012.7
19 12.09 СВ 2 н/о н/о +22.7 +16.0 66 +27 +27 душно 1015.5 1012.7
20 12.09 СВ 3 н/о н/о +22.1 +16.8 72 +26 +26 душно 1015.7 1012.9
21 12.09 В 4 20 км 9/9
[Cu Sc]
+22.5 +15.8 66 +27 +27 душно 1015.8 1013.0
22 12.09 С 3 н/о н/о +21.9 +18.5 81 +27 +27 душно 1016.8 1014.0
23 12.09 СВ 2 н/о н/о +22.3 +16.6 70 +27 +27 душно 1017.0 1014.2
00 13.09 СВ 3 20 км 10/9
[Cu Sc Ac As]
+22.5 +16.3 68 +27 +27 душно 1017.6 1014.8 +21.7
01 13.09 СВ 3 н/о н/о +22.5 +15.4 64 +26 +26 жарко 1017.8 1015.0
02 13.09 СВ 3 н/о н/о +22.8 +16.1 66 +27 +27 душно 1017.3 1014.5
03 13.09 СВ 3 20 км 10/8
[Sc Ac As]
+22.7 +15.8 65 +27 +28 душно 1016.8 1014.0
04 13.09 С 3 н/о н/о +22.8 +16.4 67 +27 +27 душно 1016.5 1013.7
05 13.09 СВ 3 н/о н/о +22.8 +17.3 71 +28 +28 душно 1016.3 1013.5
06 13.09 СВ 4 20 км 9/4
[Cu Sc Ac As Ci sp]
+23.4 +17.4 69 +29 +31 душно 1015.9 1013.1
08 13.09 СВ 3 н/о н/о +23.0 +17.0 69 +28 +28 душно 1016.9 1014.1
09 13.09 В 3 20 км 10/9
[Cu Sc Ac As]
+22.7 +16.0 66 +27 +27 душно 1017.1 1014.3
10 13.09 СВ 4 н/о н/о +22.6 +14.7 61 +26 +26 жарко 1017.2 1014.4
11 13.09 СВ 4 н/о н/о +22.0 +13.9 60 +25 +25 комфорт 1017.7 1014.9
12 13.09 В 3 20 км 9/8
[Sc Ac As]
+21.9 +15.0 65 +25 +25 комфорт 1017.8 1015.0 +23.6
13 13.09 СВ 3 н/о н/о +21.8 +14.9 65 +25 +25 комфорт 1018.2 1015.4
14 13.09 С 3 н/о н/о +21.2 +14.8 67 +24 +24 комфорт 1017.7 1014.9
15 13.09 С 3 н/о н/о +20.3 +15.3 73 +23 +23 комфорт 1017.1 1014.3
16 13.09 СЗ 2 н/о н/о +20.5 +16.7 79 +24 +24 комфорт 1016.6 1013.8
17 13.09 СЗ 3 н/о н/о +20.3 +16.8 80 +24 +24 комфорт 1016.5 1013.7
18 13.09 С 2 15 км 9/9
[Sc]
+20.4 +16.8 80 +24 +24 комфорт 1016.5 1013.7
19 13.09 С 2 н/о н/о +19.8 +16.3 80 +23 +23 комфорт 1016.3 1013.5
21 13.09 С 3 20 км 9/9
[Cu Sc]
+20.3 +16.6 79 +24 +24 комфорт 1016.8 1014.0
00 14.09 С 2 10 км в посл. час дождь 10/10
[Sc]
+21.2 +16.8 76 +25 +25 комфорт 1016.1 1013.3 +19.5 0.0
01 14.09 СЗ 3 н/о н/о +20.6 +18.0 85 +25 +25 комфорт 1016.1 1013.3
02 14.09 СЗ 4 н/о н/о +21.4 +17.8 80 +26 +26 душно 1015.4 1012.6
03 14.09 С 2 20 км в посл. час дождь 9/9
[Cu Sc]
+22.4 +18.4 78 +28 +29 душно 1014.8 1012.0
04 14.09 С 2 н/о н/о +23.7 +18.8 74 +28 +28 душно 1014.2 1011.4
05 14.09 СЗ 3 н/о н/о +23.9 +19.6 77 +29 +29 душно 1013.9 1011.1
06 14.09 СЗ 2 20 км {дождь} 9/9
[Cu Sc]
+23.8 +19.3 76 +29 +29 душно 1013.5 1010.7 0.0
07 14.09 СЗ 2 н/о н/о +24.2 +19.9 77 +30 +30 очень
душно
1013.3 1010.5
08 14.09 З 1 н/о н/о +24.9 +20.4 76 +31 +31 очень
душно
1013.1 1010.3
09 14.09 С 2 25 км 3/3
[Cu Sc]
+23.1 +20.1 83 +30 +30 очень
душно
1013.3 1010.5
10 14.09 С 2 н/о н/о +23.3 +20.1 82 +30 +30 очень
душно
1013.7 1010.9
11 14.09 С 2 н/о н/о +23.8 +20.6 82 +30 +30 очень
душно
1014.2 1011.4
12 14.09 С 2 20 км 9/9
[Cu Sc]
+23.8 +20.6 82 +30 +30 очень
душно
1014.1 1011.3 +25.1 0.0
13 14.09 СЗ 2 н/о н/о +23.2 +20.5 85 +31 +31 очень
душно
1013.9 1011.1
14 14.09 СЗ 2 н/о н/о +22.8 +20.3 86 +30 +30 очень
душно
1013.5 1010.7
15 14.09 С 2 н/о н/о +21.8 +20.3 91 +28 +28 душно 1013.0 1010.2
16 14.09 С 2 н/о н/о +21.3 +20.5 95 +27 +27 душно 1012.6 1009.8
17 14.09 С 1 н/о н/о +20.8 +20.0 95 +27 +27 душно 1012.3 1009.5
18 14.09 С 2 20 км {дождь} ясно +21.6 +20.3 92 +27 +27 душно 1012.1 1009.3 0.0
19 14.09 С 2 н/о н/о +21.0 +20.0 94 +27 +27 душно 1012.5 1009.7
20 14.09 С 2 н/о н/о +20.8 +19.8 94 +26 +26 душно 1012.5 1009.7
21 14.09 С 2 25 км 1/1
[Sc Ci fib]
+20.8 +19.8 94 +26 +26 душно 1012.2 1009.4
22 14.09 С 1 н/о н/о +21.5 +20.2 92 +27 +27 душно 1011.6 1008.8
23 14.09 С 3 н/о н/о +24.7 +20.4 77 +31 +31 очень
душно
1011.9 1009.1
00 15.09 С 3 25 км 8/3
[Cu Sc Ac trans]
+25.7 +19.4 68 +31 +34 очень
душно
1011.7 1008.9 +20.3 0.0
01 15.09 С 3 н/о н/о +27.0 +19.1 62 +32 +32 очень
душно
1011.2 1008.4
02 15.09 С 3 н/о н/о +27.8 +17.4 53 +32 +32 душно 1010.2 1007.5
03 15.09 СВ 3 20 км 9/9
[Cu Sc]
+28.9 +17.4 50 +33 +34 очень
душно
1009.4 1006.7
04 15.09 СВ 2 н/о н/о +29.9 +18.7 51 +35 +35 очень
душно
1008.5 1005.8
05 15.09 СВ 4 н/о н/о +30.2 +19.9 54 +36 +36 очень
душно
1007.9 1005.2
06 15.09 СВ 3 25 км 9/8
[Cu Sc Ac trans]
+29.5 +20.9 60 +37 +38 очень
душно
1007.5 1004.8
07 15.09 СВ 4 н/о н/о +28.8 +19.4 57 +35 +35 очень
душно
1007.3 1004.6
08 15.09 СВ 4 н/о н/о +27.8 +19.9 62 +34 +34 очень
душно
1007.5 1004.8
09 15.09 В 3 20 км в посл. час дождь 9/9
[Cu Sc]
+27.2 +21.0 69 +34 +34 очень
душно
1007.9 1005.2
10 15.09 СВ 4 н/о н/о +26.2 +21.2 74 +33 +33 очень
душно
1008.1 1005.3
11 15.09 СВ 4 н/о н/о +25.9 +20.9 74 +32 +32 очень
душно
1008.6 1005.8
12 15.09 СВ 4 20 км {дождь} 9/9
[Cu Sc]
+25.3 +21.2 78 +32 +32 очень
душно
1008.2 1005.4 +31.1 0.0
13 15.09 СВ 4 н/о н/о +25.0 +21.5 81 +32 +32 очень
душно
1007.5 1004.7
14 15.09 СВ 4 н/о н/о +24.4 +22.5 89 +32 +32 очень
душно
1007.4 1004.6
15 15.09 СВ 4 н/о н/о +23.6 +22.4 93 +31 +31 очень
душно
1006.9 1004.1
16 15.09 С 3 н/о н/о +22.7 +22.7 100 +31 +31 очень
душно
1006.3 1003.5
17 15.09 СЗ 4 н/о н/о +22.3 +22.3 100 +30 +30 очень
душно
1005.5 1002.7
18 15.09 С 3 4000 м слаб. ливневой дождь 10/10
[Cu med, cong]
+22.2 +22.2 100 +30 +30 очень
душно
1005.1 1002.3 2
19 15.09 С 3 н/о н/о +21.7 +21.7 100 +28 +28 душно 1004.8 1002.0
21 15.09 СЗ 3 4000 м ливневой дождь 10/10
[Cu med, cong]
+21.5 +21.5 100 +28 +28 очень
душно
1004.6 1001.8
22 15.09 С 3 н/о н/о +21.6 +21.6 100 +28 +28 очень
душно
1004.3 1001.5
23 15.09 С 3 н/о н/о +21.8 +21.8 100 +28 +28 душно 1003.8 1001.0
00 16.09 СЗ 3 3000 м слаб. ливневой дождь 10/10
[Cu med, cong]
+22.0 +22.0 100 +29 +29 очень
душно
1003.7 1000.9 +21.4 26
01 16.09 СЗ 2 н/о н/о +22.2 +22.2 100 +30 +30 очень
душно
1003.6 1000.8
02 16.09 СЗ 2 н/о н/о +22.5 +22.5 100 +30 +30 очень
душно
1002.9 1000.1
03 16.09 С 2 5000 м слаб. ливневой дождь 10/10
[Cu med, cong]
+22.6 +22.6 100 +31 +31 очень
душно
1002.0 999.2
04 16.09 С 3 н/о н/о +23.0 +23.0 100 +32 +32 очень
душно
1000.7 997.9
05 16.09 С 3 н/о н/о +23.5 +23.3 99 +32 +32 очень
душно
1000.4 997.6
06 16.09 СЗ 3 20 км {ливн. осадки} 10/10 300 м
[Cu med, cong]
+24.0 +23.7 98 +33 +33 очень
душно
1000.4 997.6 4
07 16.09 С 2 н/о н/о +25.1 +24.1 94 +35 +35 очень
душно
1000.5 997.8
08 16.09 С 2 н/о н/о +24.8 +23.8 94 +34 +34 очень
душно
1001.0 998.3
09 16.09 С 3 20 км 5/1
[Sc Ac As]
+23.9 +23.6 98 +32 +32 очень
душно
1001.2 998.4
10 16.09 СВ 2 н/о н/о +23.5 +23.5 100 +32 +32 очень
душно
1001.7 998.9
11 16.09 СЗ 1 н/о н/о +23.2 +23.2 100 +33 +33 очень
душно
1002.1 999.3
12 16.09 В 2 20 км 1/1
[Sc]
+23.1 +23.1 100 +32 +32 очень
душно
1002.9 1000.1 +25.3 4
13 16.09 ЮВ 1 н/о н/о +23.2 +23.2 100 +33 +33 очень
душно
1003.6 1000.8
14 16.09 В 2 н/о н/о +23.4 +23.4 100 +33 +33 очень
душно
1004.3 1001.5
15 16.09 В 2 н/о н/о +23.5 +23.5 100 +32 +32 очень
душно
1004.7 1001.9
16 16.09 СВ 2 н/о н/о +23.3 +23.3 100 +33 +33 очень
душно
1004.8 1002.0
17 16.09 В 2 н/о н/о +23.1 +23.1 100 +32 +32 очень
душно
1005.8 1003.0
18 16.09 В 2 20 км 9/9
[Sc]
+23.1 +23.1 100 +32 +32 очень
душно
1006.4 1003.6
19 16.09 В 1 н/о н/о +22.9 +22.7 99 +31 +31 очень
душно
1006.5 1003.7

 

Местоположение метеостанции Токио (Япония): широта 35.68 долгота 139.76 высота над уровнем моря 36 м.

В архиве по умолчанию представлена погода в Токио за последнюю неделю. Архивные данные за месяц целиком и за предыдущие месяцы, начиная с января 2011 года, Вы можете получить, выбрав интересующий диапазон дат из раскрывающегося списка и нажав кнопку "Ввод!".


*Определитесь, кто Вы:
робот инопланетянин человек

Внимание! Время в таблицах - всемирное. Для получения местного времени необходимо прибавить поправку, которая равна 9 ч.

Смотрите также архив погоды в соседних городах и на ближайших метеорологических станциях:

Погода в Иокогаме (Япония) (30 км)
Погода в Тибе (Япония) (32 км)
Погода в Кумугае (Япония) (62 км)
Погода в Чичибу (Япония) (71 км)
Погода в Кацууре (Япония) (77 км)
Погода в Татеяме (Япония) (78 км)
Погода в Аджиро (Япония) (92 км)
Погода на Озере Кавагучи (Япония) (93 км)
Погода в Уцуномии (Япония) (97 км)
Погода в Мисиме (Япония) (98 км)

Пояснения к столбцам:

Ветер - указаны скорость ветра в м/с - средняя за 10 мин, порывы в срок и между сроками (в фигурных скобках) и направление, откуда дует ветер: С - северный, СВ - северо-восточный, В - восточный, ЮВ - юго-восточный, Ю - южный, ЮЗ - юго-западный, З - западный, СЗ - северо-западный.
Видимость - горизонтальная дальность видимости в метрах или километрах. При видимости от 1 до 10 км при отсутствии осадков обычно наблюдается дымка, при ухудшении видимости до 1 км и менее - туман. В сухую погоду видимость может ухудшаться дымом, пылью или мглою.
Явления - указаны атмосферные явления, наблюдавшиеся в срок или в последний час перед сроком; фигурными скобками обозначены явления, наблюдавшиеся между сроками (за 1-3 часа до срока); квадратными скобками обозначены град или гололедные отложения с указанием их диаметра в мм.
Облачность - указаны через наклонную черту общая и нижняя облачность в баллах и высота нижней границы облаков в метрах; квадратными скобками обозначены формы облаков: Ci - перистые, Cs - перисто-слоистые, Cc - перисто-кучевые, Ac - высококучевые, As - высокослоистые, Sc - слоисто-кучевые, Ns - слоисто-дождевые, Cu - кучевые, Cb - кучево-дождевые. Подробнее классификацию облаков см. в Атласе облаков (PDF).
T - Температура воздуха - температура, измеренная на высоте 2 м над землей.
Td - Температура точки росы - температура, при понижении до которой содержащийся в воздухе водяной пар достигнет насыщения.
f - Относительная влажность воздуха - влажноcть воздуха, измеренная на высоте 2 м над землей.
Te - Эффективная температура - температура, которую ощущает одетый по сезону человек в тени. Характеристика душности погоды. При расчете учитывается влияние влажности воздуха и скорости ветра на теплоощущения человека.
Tes - Эффективная температура на солнце - температура, которую ощущает человек, с поправкой на солнечный нагрев. Характеристика знойности погоды. Зависит от высоты солнца над горизонтом, облачности и скорости ветра. Ночью, в пасмурную погоду, а также при ветре 12 м/с и более поправка равна нулю.
P - Атмосферное давление - приведенное к уровню моря атмосферное давление.
Po - Атмосферное давление - измеренное на уровне метеостанции атмосферное давление.
Tmin - Минимальная температура - минимум температуры воздуха на высоте 2 м над землей.
Tmax - Максимальная температура - максимум температуры воздуха на высоте 2 м над землей.
R - Количество осадков - Количество выпавших осадков за период времени, мм. При наведении курсора мыши на число - период времени, за который выпало указанное количество осадков.
R24 - Количество осадков - Количество выпавших осадков за 24 часа, мм.
S - Снежный покров - Высота снежного покрова, см. При наведении курсора мыши на число - состояние снежного покрова и степень покрытия местности в баллах.